Regional Weather Roundup
Issued by NWS

Home | Current Version | Previous Version | Graphics & Text | Print | Product List | Glossary On
Versions: 1 2 3 4 5 6 7 8 9 10 11 12 13 14 15 16 17 18 19 20 21 22 23 24 25 26 27 28 29 30 31 32 33 34 35 36 37 38 39 40 41 42 43 44 45 46 47 48 49 50
157
ASUS43 KBIS 061410
RWRND

NORTH DAKOTA REGIONAL WEATHER ROUNDUP
NATIONAL WEATHER SERVICE BISMARCK ND
900 AM CDT FRI MAY 06 2016

NOTE: "FAIR" INDICATES FEW OR NO CLOUDS BELOW 12,000 FEET WITH NO
SIGNIFICANT WEATHER AND/OR OBSTRUCTIONS TO VISIBILITY.


NDZ001>003-009>011-017-061500-
NORTHWEST NORTH DAKOTA

CITY           SKY/WX    TMP DP  RH WIND       PRES   REMARKS
WILLISTON      NOT AVBL
MINOT          MOSUNNY   67  46  47 N20G31    29.91
MINOT AFB      MOSUNNY   62  47  57 N23G30    29.92R
$$

NDZ018>021-031>035-040>046-061500-
SOUTHWEST NORTH DAKOTA

CITY           SKY/WX    TMP DP  RH WIND       PRES   REMARKS
BISMARCK       NOT AVBL
DICKINSON      MOSUNNY   60  45  57 N16G25    29.96
GARRISON         N/A     64  47  53 N20G32    29.89R
HETTINGER ARPT MOSUNNY   61  44  53 N17G26    29.92
$$

NDZ004>008-012>016-024-026-027-054-061500-
NORTHEAST NORTH DAKOTA

CITY           SKY/WX    TMP DP  RH WIND       PRES   REMARKS
GRAND FORKS    PTSUNNY   72  47  40 NW20      29.73R
GRND FRKS AFB  PTSUNNY   72  45  37 N21G26    29.73R
DEVILS LAKE    CLOUDY    64  46  52 N32G39    29.80  HAZE
$$

NDZ022-023-025-028>030-036>039-047>053-061500-
SOUTHEAST NORTH DAKOTA

CITY           SKY/WX    TMP DP  RH WIND       PRES   REMARKS
FARGO          SUNNY     70  47  43 S10       29.74
JAMESTOWN      MOSUNNY   71  52  50 NW14      29.77
$$





USA.gov is the U.S. government's official web portal to all federal, state and local government web resources and services.